Logan Peak - 24 Hour Table
Date & TimeSolar
Radiation
(W/m²)
Wind
Speed
(mph)
Wind
Direction
(degrees)
Air
Temperature
(°F)
Relative
Humidity
(%)
Barometeric
Pressure
(inHg)
2019/10/19 12:00 126 26.7 219 24.4 92 29.66
2019/10/19 11:00 139 23.3 219 24.4 98 29.68
2019/10/19 10:00 131 21.0 213 24.1 95 29.69
2019/10/19 09:00 171 21.5 212 23.6 97 29.71
2019/10/19 08:00 120 20.6 224 22.9 98 29.71
2019/10/19 07:00 5 23.3 241 22.4 99 29.72
2019/10/19 06:00 0 21.9 243 23.0 100 29.74
2019/10/19 05:00 0 22.3 244 23.1 100 29.74
2019/10/19 04:00 0 22.0 243 22.9 100 29.73
2019/10/19 03:00 0 20.4 235 22.4 100 29.73
2019/10/19 02:00 0 18.9 240 22.4 100 29.74
2019/10/19 01:00 0 16.4 232 22.5 100 29.72
2019/10/19 00:00 0 17.4 234 22.7 100 29.75
2019/10/18 23:00 0 22.0 238 22.6 100 29.76
2019/10/18 22:00 0 20.9 238 22.6 100 29.75
2019/10/18 21:00 0 22.1 237 22.6 100 29.76
2019/10/18 20:00 0 21.2 226 22.4 100 29.77
2019/10/18 19:00 0 19.4 230 22.8 100 29.76
2019/10/18 18:00 6 19.1 236 23.0 100 29.76
2019/10/18 17:00 60 20.4 235 23.2 100 29.75
2019/10/18 16:00 72 17.7 251 23.7 100 29.75
2019/10/18 15:00 114 15.6 274 23.7 100 29.74
2019/10/18 14:00 196 18.0 270 24.0 100 29.73
2019/10/18 13:00 129 14.9 266 23.7 100 29.74